Forside
METAR-TAF:

METAR-TAF

Lufthavne :

Southern Wisconsin Regional Airport

Janesville, Wisconsin, USA

Breddekreds: 42-37N, længdekreds: 089-02W, højde: 246 m

Aktuelle vejr

Denne rapport blev lavet for 43 minutter siden, kl. 17:45 UTC
Vind 10 kt fra sydvest
Temperatur 6°C
Fugtighed 61%
Tryk 1013 hPa
Sigt: 16.1 km
Nogle få skyer i en højde af 25000 ft

METAR: KJVL 231745Z 23010KT 10SM FEW250 06/M01 A2992

Tid: 12:28 (18:28 UTC)


TAF: fraværende

Vejrobservationer og prognoser fra mere end 4000 lufthavne (METAR og TAF).

De gule og røde prikker repræsenterer de meteorologiske stationer.

Flyt musen over at se navnet på stationen.

Så klik over at se vejr observationer og prognoser.

At skifte det kort: Klik på de grønne knapper med et sort kors for at zoome ind; på den grønne knap med en bindestreg for at zoome ud; eller på de grønne pile for tilstødende kort.


METAR-TAF: